Terminal Aerodrome Forecast
Issued by NWS

Home | Current Version | Previous Version | Text Only | Print | Product List | Glossary On
Versions: 1 2 3 4 5 6 7 8 9 10 11 12 13 14 15 16 17 18 19 20 21 22 23 24 25 26 27 28 29 30 31 32 33 34 35 36 37 38 39 40 41 42 43 44 45 46 47 48 49 50
000
FTUS45 KBOU 260809 AAB
TAFBJC
TAF AMD
KBJC 260809Z 2608/2706 36007KT 6SM -SN BR BKN006 OVC016
      TEMPO 2608/2612 3SM -SN BKN004
     FM261200 04006KT 3SM -SN BR BKN008 OVC018
     FM262100 04005KT 5SM -SN BR SCT010 BKN015 OVC025
     FM270200 VRB05KT P6SM VCSH SCT012 BKN025 OVC050=

USA.gov is the U.S. government's official web portal to all federal, state and local government web resources and services.